• In Romania
  • List of Countries
  • For 7 days
  • Water Temperature
  • Satellite Maps
  • Weather Map
  • Weather Widgets
  • user-avatar
    Login

    Hourly Weather Salzburg

    Today, 23 September, Saturday

    Time Temperature Precipitation Wind Pressure Humidity
    00:00 +3°C° 0 mm 1 mps 628 mmHg 85%
    01:00 +2°C° 0 mm 1 mps 628 mmHg 85%
    02:00 +2°C° 0 mm 1 mps 628 mmHg 85%
    03:00 +2°C° 0 mm 1 mps 628 mmHg 85%
    04:00 +2°C° 0 mm 1 mps 628 mmHg 85%
    05:00 +3°C° 0 mm 1 mps 628 mmHg 84%
    06:00 +3°C° 0 mm 1 mps 628 mmHg 83%
    07:00 +4°C° 0 mm 1 mps 629 mmHg 81%
    08:00 +6°C° 0 mm 1 mps 629 mmHg 75%
    09:00 +9°C° 0 mm 1 mps 630 mmHg 70%
    10:00 +11°C° 0 mm 1 mps 631 mmHg 64%
    11:00 +12°C° 0 mm 1 mps 631 mmHg 62%
    12:00 +12°C° 0 mm 1 mps 631 mmHg 60%
    13:00 +13°C° 0 mm 1 mps 630 mmHg 58%
    14:00 +13°C° 0 mm 1 mps 630 mmHg 62%
    15:00 +12°C° 0 mm 1 mps 630 mmHg 65%
    16:00 +11°C° 0 mm 1 mps 629 mmHg 69%
    17:00 +9°C° 0 mm 1 mps 629 mmHg 77%
    18:00 +7°C° 0 mm 1 mps 628 mmHg 86%
    19:00 +4°C° 0 mm 0 mps 627 mmHg 94%
    20:00 +5°C° 0 mm 1 mps 627 mmHg 94%
    21:00 +4°C° 0 mm 1 mps 628 mmHg 95%
    22:00 +4°C° 0 mm 1 mps 628 mmHg 96%
    23:00 +4°C° 0 mm 1 mps 627 mmHg 96%

    Tomorrow, 24 September, Sunday

    Time Temperature Precipitation Wind Pressure Humidity
    00:00 +4°C° 0 mm 1 mps 627 mmHg 96%
    01:00 +3°C° 0 mm 1 mps 627 mmHg 96%
    02:00 +3°C° 0 mm 1 mps 627 mmHg 96%
    03:00 +3°C° 0 mm 1 mps 627 mmHg 96%
    04:00 +3°C° 0 mm 1 mps 627 mmHg 96%
    05:00 +3°C° 0 mm 1 mps 627 mmHg 95%
    06:00 +4°C° 0 mm 1 mps 627 mmHg 94%
    07:00 +4°C° 0 mm 1 mps 628 mmHg 93%
    08:00 +6°C° 0 mm 1 mps 628 mmHg 88%
    09:00 +7°C° 0 mm 1 mps 629 mmHg 83%
    10:00 +9°C° 0 mm 1 mps 629 mmHg 79%
    11:00 +10°C° 0.1 mm 1 mps 629 mmHg 75%
    12:00 +10°C° 0.1 mm 1 mps 630 mmHg 72%
    13:00 +11°C° 0.1 mm 1 mps 630 mmHg 69%
    14:00 +10°C° 0.2 mm 1 mps 629 mmHg 72%
    15:00 +10°C° 0.2 mm 1 mps 629 mmHg 75%
    16:00 +10°C° 0.2 mm 1 mps 629 mmHg 77%
    17:00 +8°C° 0.1 mm 1 mps 628 mmHg 83%
    18:00 +6°C° 0.1 mm 1 mps 628 mmHg 89%
    19:00 +3°C° 0.1 mm 0 mps 628 mmHg 95%
    20:00 +4°C° 0 mm 1 mps 628 mmHg 95%
    21:00 +4°C° 0 mm 1 mps 628 mmHg 96%
    22:00 +3°C° 0 mm 1 mps 628 mmHg 96%
    23:00 +3°C° 0 mm 1 mps 627 mmHg 96%

    Day after tomorrow, 25 September, Monday

    Time Temperature Precipitation Wind Pressure Humidity
    00:00 +3°C° 0 mm 1 mps 627 mmHg 95%
    01:00 +3°C° 0 mm 1 mps 627 mmHg 94%
    02:00 +3°C° 0 mm 1 mps 627 mmHg 93%
    03:00 +3°C° 0 mm 1 mps 627 mmHg 92%
    04:00 +3°C° 0 mm 1 mps 627 mmHg 90%
    05:00 +3°C° 0 mm 1 mps 627 mmHg 89%
    06:00 +3°C° 0 mm 1 mps 627 mmHg 88%
    07:00 +4°C° 0 mm 1 mps 627 mmHg 87%
    08:00 +6°C° 0 mm 1 mps 628 mmHg 80%
    09:00 +8°C° 0 mm 1 mps 629 mmHg 72%
    10:00 +9°C° 0 mm 0 mps 629 mmHg 65%
    11:00 +11°C° 0 mm 1 mps 629 mmHg 63%
    12:00 +12°C° 0 mm 1 mps 630 mmHg 60%
    13:00 +12°C° 0 mm 1 mps 630 mmHg 58%
    14:00 +12°C° 0.3 mm 1 mps 629 mmHg 64%
    15:00 +11°C° 0.3 mm 1 mps 629 mmHg 70%
    16:00 +9°C° 0.3 mm 2 mps 628 mmHg 76%
    17:00 +8°C° 0.1 mm 1 mps 628 mmHg 82%
    18:00 +7°C° 0.1 mm 1 mps 628 mmHg 88%
    19:00 +5°C° 0.1 mm 1 mps 627 mmHg 94%
    20:00 +4°C° 0 mm 1 mps 627 mmHg 94%
    21:00 +4°C° 0 mm 1 mps 627 mmHg 94%
    22:00 +3°C° 0 mm 1 mps 627 mmHg 94%
    23:00 +3°C° 0 mm 1 mps 627 mmHg 93%

    26 September, Tuesday

    Time Temperature Precipitation Wind Pressure Humidity
    00:00 +3°C° 0 mm 1 mps 627 mmHg 93%
    01:00 +3°C° 0 mm 1 mps 627 mmHg 93%
    02:00 +2°C° 0 mm 1 mps 627 mmHg 92%
    03:00 +2°C° 0 mm 1 mps 627 mmHg 92%
    04:00 +2°C° 0 mm 1 mps 626 mmHg 91%
    05:00 +2°C° 0 mm 1 mps 627 mmHg 90%
    06:00 +2°C° 0 mm 1 mps 627 mmHg 89%
    07:00 +3°C° 0 mm 1 mps 627 mmHg 88%
    08:00 +6°C° 0 mm 1 mps 628 mmHg 78%
    09:00 +8°C° 0 mm 1 mps 629 mmHg 69%
    10:00 +11°C° 0 mm 1 mps 630 mmHg 60%
    11:00 +12°C° 0 mm 1 mps 630 mmHg 57%
    12:00 +13°C° 0 mm 1 mps 630 mmHg 54%
    13:00 +14°C° 0 mm 1 mps 630 mmHg 51%
    14:00 +13°C° 0.1 mm 1 mps 630 mmHg 56%
    15:00 +13°C° 0.1 mm 2 mps 630 mmHg 62%
    16:00 +12°C° 0.1 mm 2 mps 629 mmHg 68%
    17:00 +10°C° 0.2 mm 1 mps 629 mmHg 76%
    18:00 +8°C° 0.2 mm 1 mps 628 mmHg 85%
    19:00 +6°C° 0.2 mm 1 mps 628 mmHg 93%
    20:00 +5°C° 0 mm 1 mps 628 mmHg 93%
    21:00 +5°C° 0 mm 1 mps 628 mmHg 93%
    22:00 +4°C° 0 mm 1 mps 628 mmHg 93%
    23:00 +4°C° 0 mm 1 mps 628 mmHg 93%

    27 September, Wednesday

    Time Temperature Precipitation Wind Pressure Humidity
    00:00 +4°C° 0 mm 1 mps 628 mmHg 93%
    01:00 +3°C° 0 mm 1 mps 628 mmHg 93%
    02:00 +3°C° 0 mm 1 mps 628 mmHg 92%
    03:00 +3°C° 0 mm 1 mps 628 mmHg 92%
    04:00 +3°C° 0 mm 1 mps 628 mmHg 92%
    05:00 +3°C° 0 mm 1 mps 628 mmHg 91%
    06:00 +3°C° 0 mm 1 mps 628 mmHg 90%
    07:00 +4°C° 0 mm 1 mps 629 mmHg 89%
    08:00 +6°C° 0 mm 1 mps 630 mmHg 80%
    09:00 +9°C° 0 mm 1 mps 631 mmHg 71%
    10:00 +12°C° 0 mm 1 mps 632 mmHg 62%
    11:00 +13°C° 0 mm 1 mps 632 mmHg 59%
    12:00 +13°C° 0 mm 1 mps 632 mmHg 56%
    13:00 +14°C° 0 mm 1 mps 632 mmHg 53%
    14:00 +14°C° 0.2 mm 2 mps 632 mmHg 59%
    15:00 +13°C° 0.2 mm 2 mps 631 mmHg 65%
    16:00 +12°C° 0.2 mm 2 mps 631 mmHg 71%
    17:00 +10°C° 0.3 mm 1 mps 631 mmHg 79%
    18:00 +8°C° 0.3 mm 1 mps 630 mmHg 86%
    19:00 +6°C° 0.3 mm 1 mps 630 mmHg 93%
    20:00 +6°C° 0.1 mm 1 mps 630 mmHg 94%
    21:00 +6°C° 0.1 mm 1 mps 630 mmHg 94%
    22:00 +5°C° 0.1 mm 1 mps 630 mmHg 94%
    23:00 +5°C° 0 mm 1 mps 630 mmHg 94%

    28 September, Thursday

    Time Temperature Precipitation Wind Pressure Humidity
    00:00 +5°C° 0 mm 1 mps 630 mmHg 93%
    01:00 +4°C° 0 mm 1 mps 630 mmHg 93%
    02:00 +4°C° 0 mm 1 mps 630 mmHg 93%
    03:00 +4°C° 0 mm 1 mps 630 mmHg 92%
    04:00 +4°C° 0 mm 1 mps 630 mmHg 92%
    05:00 +4°C° 0 mm 1 mps 630 mmHg 91%
    06:00 +5°C° 0 mm 1 mps 630 mmHg 91%
    07:00 +5°C° 0 mm 1 mps 630 mmHg 90%
    08:00 +7°C° 0.1 mm 1 mps 631 mmHg 82%
    09:00 +9°C° 0.1 mm 1 mps 632 mmHg 74%
    10:00 +10°C° 0.1 mm 0 mps 633 mmHg 66%
    11:00 +12°C° 0.3 mm 1 mps 633 mmHg 67%
    12:00 +12°C° 0.3 mm 1 mps 633 mmHg 68%
    13:00 +13°C° 0.3 mm 1 mps 633 mmHg 69%
    14:00 +12°C° 0.8 mm 1 mps 632 mmHg 73%
    15:00 +12°C° 0.8 mm 1 mps 632 mmHg 77%
    16:00 +11°C° 0.8 mm 1 mps 632 mmHg 82%
    17:00 +10°C° 0.5 mm 1 mps 632 mmHg 86%
    18:00 +8°C° 0.5 mm 1 mps 631 mmHg 90%
    19:00 +6°C° 0.5 mm 1 mps 631 mmHg 94%
    20:00 +6°C° 0.1 mm 1 mps 631 mmHg 95%
    21:00 +5°C° 0.1 mm 1 mps 631 mmHg 95%
    22:00 +5°C° 0.1 mm 1 mps 631 mmHg 95%
    23:00 +4°C° 0 mm 1 mps 631 mmHg 95%
    Show more